Natchez, MS (39120)

4:39 PM CST on February 09, 2016 (GMT -0600)
Downtown, | | Change Station
CLOSE
Current Station
Personal Weather Station
Location: Natchez, MS
Elevation: 236 ft
Nearby Weather Stations
Active Advisory: Wind Advisory

Elev 236 ft 31.56 °N, 91.40 °W | Updated 13 seconds ago

Clear
Clear
54.7 °F
Feels Like 54.7 °F
N
5.1
Wind Variable Wind from West
Gusts 7.4 mph

Today
High -- | Low -- °F
--% Chance of Precip.
Yesterday
High -- | Low -- °F
Precip. -- in
Pressure 30.10 in
Visibility 10.0 miles
Clouds Clear
Dew Point 28 °F
Humidity 36%
Rainfall 0.00 in
Snow Depth Not available.
6:52 AM 5:46 PM
New Moon, 2% visible
METAR KHEZ 092235Z AUTO 31016G25KT 10SM CLR 12/M08 A3010 RMK AO1
Pressure 30.10 in
Visibility 10.0 miles
Clouds Clear
Dew Point 28 °F
Humidity 36%
Rainfall 0.00 in
Snow Depth Not available.
6:52 AM 5:46 PM
New Moon, 2% visible
METAR KHEZ 092235Z AUTO 31016G25KT 10SM CLR 12/M08 A3010 RMK AO1

10-Day Weather Forecast

Almanac

Astronomy

Feb. 09, 2016 Rise Set
Actual Time
Civil Twilight
Nautical Twilight
Astronomical Twilight
Moon
Length of Visible Light
Length of Day
Tomorrow will be .
, % of the Moon is Illuminated

Today's Extremes

State Highs State Lows

Community

WunderPhotos

Upload Photos

1,891,725 photos uploaded!

WunderBlog® & News

Nearby

Air Quality

  Air Quality AQ Index Pollutant
Not available.

Snow Depth

Station Depth Elevation

Earthquake Activity

City Distance Mag. Time & Date
Minimum magnitude displayed is 2.5.

Coastal Water Temperatures

Place Temperature

Stations

Nearby Weather Stations

Station Location Temp. Windchill Dew Point Humidity Wind Precip. Elev Updated Type
                   

Watches & Warnings

Wind Advisory
Issued: 10:37 AM CST Feb. 9, 2016 – National Weather Service

... Wind Advisory remains in effect until 6 PM CST this evening...

* timing... 10 am until 6 PM

* winds... 20 to 30 mph with gusts around 35 mph

* impacts... these winds can knock down rotten trees and affect
travel in high profile vehicles

Precautionary/preparedness actions...

A Wind Advisory means that winds of 20 to 30 mph are expected.
Winds this strong can make driving difficult... especially for
high profile vehicles. Use extra caution when driving.

Wind gusts around 40 mph can occasionally bring down large limbs
and rotten trees causing serious injury and property damage.
Exercise caution when outdoors during these conditions.



15